Watertown, NY

11:04 AM EDT on April 26, 2017 (GMT -0400)
Watertown International

Weather History for KART - January, 2013

Change the Weather History Date:

Wednesday, January 16, 2013

  Actual Average Record
Temperature  
Mean Temperature 33 °F 19 °F  
Max Temperature 37 °F 29 °F 53 °F (1953)
Min Temperature 28 °F 9 °F -43 °F (1994)
Degree Days  
Heating Degree Days 32 46  
Month to date heating degree days 550 721  
Since 1 July heating degree days 2988 3517  
Cooling Degree Days 0 0  
Month to date cooling degree days 0 0  
Year to date cooling degree days 0 0  
Moisture  
Dew Point 26 °F    
Average Humidity 75    
Maximum Humidity 85    
Minimum Humidity 64    
Precipitation  
Precipitation T in 0.08 in 0.74 in (1979)
Month to date precipitation 0.79 1.44  
Year to date precipitation 0.79 1.44  
Sea Level Pressure  
Sea Level Pressure 29.90 in    
Wind  
Wind Speed 7 mph (SSW)    
Max Wind Speed 20 mph    
Max Gust Speed 29 mph    
Visibility 10 miles    
Events      
T = Trace of Precipitation, MM = Missing Value Source: NWS Daily Summary

Daily Weather History Graph

Daily Weather History Graph

Search for Another Location

Airport or City:

Trip Planner

Search our weather history database for the weather conditions in past years. The results will help you decide how hot, cold, wet, or windy it might be!

Date:

Astronomy

Jan. 16, 2013 Rise Set
Actual Time 7:34 AM EST 4:53 PM EST
Civil Twilight 7:02 AM EST 5:25 PM EST
Nautical Twilight 6:27 AM EST 6:01 PM EST
Astronomical Twilight 5:52 AM EST 6:35 PM EST
Moon 9:57 AM EST (1/16) 10:57 PM EST (1/16)
Length of Visible Light 10h 22m
Length of Day
9h 18m
Waxing Crescent, 28% of the Moon is Illuminated
Jan 16
Waxing Crescent
Jan 18
First Quarter
Jan 26
Full
Feb 3
Last Quarter
Feb 10
New

Hourly Weather History & Observations

Time (EST) Temp. Windchill Dew Point Humidity Pressure Visibility Wind Dir Wind Speed Gust Speed Precip Events Conditions
12:56 AM 28.0 °F - 24.1 °F 85% 30.19 in 10.0 mi Calm Calm - N/A   Clear
1:56 AM 28.9 °F - 23.0 °F 78% 30.16 in 10.0 mi Calm Calm - N/A   Partly Cloudy
2:56 AM 28.4 °F - 24.8 °F 86% 30.14 in 10.0 mi Calm Calm - N/A   Overcast
3:56 AM 28.9 °F - 25.0 °F 85% 30.12 in 10.0 mi Calm Calm - N/A   Overcast
4:56 AM 28.9 °F - 25.0 °F 85% 30.08 in 10.0 mi Calm Calm - N/A   Overcast
5:56 AM 28.9 °F - 25.0 °F 85% 30.08 in 10.0 mi Calm Calm - N/A   Overcast
6:56 AM 30.0 °F - 25.0 °F 82% 30.06 in 10.0 mi Calm Calm - N/A   Overcast
7:56 AM 30.0 °F - 24.1 °F 79% 30.04 in 10.0 mi Calm Calm - N/A   Overcast
8:56 AM 30.9 °F 24.3 °F 21.9 °F 69% 30.01 in 10.0 mi SSE 6.9 mph - N/A   Overcast
9:56 AM 32.0 °F 26.4 °F 23.0 °F 69% 29.98 in 10.0 mi SSE 5.8 mph - N/A   Overcast
10:56 AM 33.1 °F 28.7 °F 25.0 °F 72% 29.93 in 10.0 mi South 4.6 mph - N/A   Overcast
11:56 AM - - - N/A% 29.86 in - North - - N/A   Overcast
12:56 PM 35.1 °F 29.3 °F 27.0 °F 72% 29.84 in 10.0 mi Variable 6.9 mph - N/A   Mostly Cloudy
1:30 PM 35.6 °F 29.9 °F 26.6 °F 70% 29.81 in 10.0 mi SSW 6.9 mph - N/A   Overcast
1:56 PM 35.1 °F 30.1 °F 27.0 °F 72% 29.83 in 10.0 mi SSW 5.8 mph - N/A   Overcast
2:27 PM 35.6 °F 29.2 °F 26.6 °F 70% 29.79 in 10.0 mi SSW 8.1 mph 17.3 mph N/A   Overcast
2:56 PM 36.0 °F 28.5 °F 27.0 °F 70% 29.81 in 10.0 mi SSW 10.4 mph - N/A   Overcast
3:56 PM 35.1 °F 26.9 °F 27.0 °F 72% 29.80 in 10.0 mi SSW 11.5 mph - N/A   Overcast
4:56 PM 34.0 °F 28.8 °F 27.0 °F 75% 29.79 in 10.0 mi South 5.8 mph - N/A   Overcast
5:56 PM 34.0 °F 28.8 °F 28.0 °F 79% 29.78 in 10.0 mi South 5.8 mph - N/A   Overcast
6:56 PM 34.0 °F 26.6 °F 28.0 °F 79% 29.78 in 10.0 mi South 9.2 mph - N/A   Overcast
7:07 PM 33.8 °F 27.0 °F 28.4 °F 81% 29.77 in 10.0 mi South 8.1 mph - N/A   Mostly Cloudy
7:56 PM 35.1 °F 27.4 °F 28.0 °F 76% 29.79 in 10.0 mi South 10.4 mph 17.3 mph N/A   Mostly Cloudy
8:56 PM 36.0 °F 28.0 °F 28.0 °F 73% 29.78 in 10.0 mi SSW 11.5 mph 17.3 mph N/A   Overcast
9:25 PM 35.6 °F 28.0 °F 28.4 °F 75% 29.77 in 10.0 mi SW 10.4 mph - N/A   Overcast
9:56 PM 37.0 °F 28.9 °F 27.0 °F 67% 29.79 in 10.0 mi SW 12.7 mph 21.9 mph N/A   Overcast
10:56 PM 37.0 °F 27.0 °F 27.0 °F 67% 29.79 in 10.0 mi WSW 18.4 mph 27.6 mph N/A   Overcast
11:13 PM 37.4 °F 28.5 °F 28.4 °F 70% 29.78 in 10.0 mi WSW 15.0 mph 24.2 mph N/A   Overcast
11:21 PM 37.4 °F 28.2 °F 28.4 °F 70% 29.78 in 10.0 mi WSW 16.1 mph 23.0 mph N/A   Overcast
11:56 PM 37.0 °F 27.4 °F 28.0 °F 70% 29.79 in 10.0 mi WSW 17.3 mph 28.8 mph 0.00 in   Overcast